Regional Weather Roundup
Issued by NWS Mt. Holly, NJ

Home | Current Version | Previous Version | Text Only | Print | Product List | Glossary On
Versions: 1 2 3 4 5 6 7 8 9 10 11 12 13 14 15 16 17 18 19 20 21 22 23 24 25 26 27 28 29 30 31 32 33 34 35 36 37 38 39 40 41 42 43 44 45 46 47 48 49 50
000
ASUS41 KPHI 230910
RWRPHI

REGIONAL WEATHER ROUNDUP
NATIONAL WEATHER SERVICE MOUNT HOLLY NJ
500 AM EDT WED JUL 23 2014

NOTE:  "FAIR" INDICATES FEW OR NO CLOUDS BELOW 12,000 FEET WITH NO
SIGNIFICANT WEATHER AND/OR OBSTRUCTIONS TO VISIBILITY.

 * = STATION DOES NOT REPORT PRECIPITATION (E.G. RAIN, SNOW, ETC.)
        OR FOG.

NJZ015>026-231000-
SOUTHERN NEW JERSEY

CITY           SKY/WX    TMP DP  RH WIND       PRES   REMARKS
POMONA         CLEAR     69  67  93 CALM      30.02F
RIO GRANDE*    CLEAR     72  66  83 SW5       30.03F
MILLVILLE      CLEAR     67  66  97 CALM      30.02F
WRIGHTSTOWN    CLEAR     67  67  99 SW3       30.00F
MOUNT HOLLY    CLEAR     67  65  93 CALM      30.01F
TRENTON        CLEAR     69  63  81 CALM      30.00F

$$
NJZ001>014-231000-
NORTHERN NEW JERSEY

CITY           SKY/WX    TMP DP  RH WIND       PRES   REMARKS
SUSSEX         PTCLDY    69  65  86 CALM      29.98F
ANDOVER*         N/A     69  66  90 CALM      30.00F
MORRISTOWN     MOCLDY    72  64  78 CALM      29.99F
NEWARK         PTCLDY    72  62  71 SW8       29.99F
TETERBORO      MOCLDY    74  63  68 S6        29.98S
CALDWELL       PTCLDY    72  62  71 S5        29.99F
SOMERVILLE     CLEAR     66  64  93 CALM      29.98F
ALLAIRE*       PTCLDY    70  64  83 SW6       30.01F
TOMS RIVER*    CLEAR     68  66  94 SW3       30.02F

$$
PAZ043-044-047-054-055-060>062-066>071-231000-
EASTERN PENNSYLVANIA

CITY           SKY/WX    TMP DP  RH WIND       PRES   REMARKS
PHILADELPHIA   PTCLDY    72  64  76 S8        30.02S
NORTH PHILA    CLEAR     72  64  76 CALM      30.02F
BLUE BELL      PTCLDY    70  68  94 CALM      30.00F
DOYLESTOWN     CLEAR     67  65  93 S3        30.00F
QUAKERTOWN*    CLEAR     66  64  94 CALM      30.02F
POTTSTOWN      CLEAR     68  65  90 CALM      30.02F
LANCASTER      PTCLDY    67  64  90 NE3       30.00F
COATESVILLE    PTCLDY    70  70 100 W3        30.03F
READING        CLEAR     73  65  75 CALM      29.99F
ALLENTOWN      PTCLDY    70  65  84 CALM      30.00F
MOUNT POCONO   CLEAR     67  64  90 W8        30.04F FOG
HAZLETON       MOCLDY    70  68  94 CALM      30.05F
WILKES BARRE   CLEAR     72  66  81 CALM      29.99F

$$
DEZALL-MDZ008-012-015-019-020-231000-
DELAWARE AND EASTERN MARYLAND

CITY           SKY/WX    TMP DP  RH WIND       PRES   REMARKS
WILMINGTON     CLEAR     71  67  87 W3        30.02S
DOVER          MOCLDY    70  70 100 S6        30.00F
GEORGETOWN     FOG       70  68  93 S10       30.03F VSB 1
EASTON         PTCLDY    73  73 100 CALM      30.05F
PATUXENT       PTCLDY    73  71  93 CALM      30.02F
OCEAN CITY     CLEAR     66  65  96 CALM      30.03S FOG
WALLOPS ISLAND PTCLDY    71  70  96 CALM      30.03F
CAMBRIDGE      CLEAR     72  68  88 CALM      30.02F

$$
PAZ001-021-NYZ056-072-MDZ011-DCZ001-231000-
OTHER NEARBY LOCATIONS

CITY           SKY/WX    TMP DP  RH WIND       PRES   REMARKS
HARRISBURG     PTCLDY    75  68  78 VRB6      29.98F
STATE COLLEGE  CLEAR     69  67  95 SW6       29.99F
WILLIAMSPORT   CLEAR     69  65  86 CALM      29.95F
BINGHAMTON     CLEAR     69  67  93 S7        29.98F
NEW YORK CITY  PTCLDY    73  63  70 VRB5      30.02F
BALTIMORE      PTCLDY    71  68  90 CALM      30.01F
WASHINGTON DC  MOCLDY    75  69  81 S7        30.02F

$$


USA.gov is the U.S. government's official web portal to all federal, state and local government web resources and services.